User: anonymous   Login
Location: Caribou
(46.8667°N, 68.0167°W)
Time: 23:59:42
(UTC-04:00)
Language:

SL-08 RB Rocket - Orbit

View from above orbital plane
View from above orbital plane
View from above satellite
View from above satellite

Ground track
Ground track

The orbit data is extracted from the following two-line orbital elements,

1 26387U 00033D   15086.18794799  .00000938  00000-0  17218-3 0  9998
2 26387 098.0703 155.4011 0027467 039.9626 015.5933 14.67780688788591
Epoch (UTC): 27 March 2015 04:30:38
Eccentricity: 0.0027467
inclination: 98.0703°
perigee height: 649 km
apogee height: 687 km
right ascension of ascending node: 155.4011°
argument of perigee: 39.9626°
revolutions per day: 14.67780688
mean anomaly at epoch: 15.5933°
orbit number at epoch: 78859

The dashed part of the orbit path shows where the satellite is in the earth's shadow,  

DLR